Location: Croissy-Beaubourg
(48.8283°N, 2.6696°E)
Time: 01:40:00
(UTC+00:00)

USA 215 - Pass Details

Date: 29 May 2022
Orbit: 1099 x 1108 km, 123.0° (Epoch: 10 June)

Event Time Altitude Azimuth Distance (km) Brightness Sun altitude
Rises 23:52:50 0° 55° (NE) 3,926 6.7 -19.6°
Reaches altitude 10° 23:55:19 10° 56° (NE) 2,967 6.0 -19.6°
Maximum altitude 00:01:54 89° 144° (SE) 1,111 3.2 -19.5°
Enters shadow 00:07:57 13° 237° (WSW) 2,767 5.0 -19.4°
